Home > Weather > Moss > Past weeks

Flag for Norway Past Weather in Moss, Norway — Yesterday and Last 2 Weeks

Now
61 °F

Passing clouds.


Feels Like: 61 °F
Forecast: 56 / 61 °F
Wind: 3 mph from Northeast

Location: Rygge

Current Time: Jun 26, 2016 at 3:04:51 AM

Latest Report: Jun 26, 2016 at 2:20 AM


Visibility: N/A

Pressure: 29.86 "Hg

Humidity: 83%

Dew Point: 55 °F

Location of MossLocation

Past Weather in Moss — Graph

°F

Moss Temperature Yesterday

Maximum temperature yesterday: 72 °F (at 1:20 PM)
Minimum temperature yesterday: 59 °F (at 11:50 PM)
Average temperature yesterday: 66 °F

High & Low Weather Summary for the Past Weeks

 TemperatureHumidityPressure
High73 °F (Jun 16, 1:50 PM)100% (Jun 13, 3:50 AM)30.18 "Hg (Jun 13, 3:50 AM)
Low43 °F (Jun 11, 3:50 AM)29% (Jun 14, 11:50 AM)29.56 "Hg (Jun 16, 6:20 PM)
Average61 °F74%29.84 "Hg
* Reported Jun 11 1:20 AM — Jun 26 1:50 AM, Moss, Weather by CustomWeather, © 2016

Note: Actual official high and low records may vary slightly from our data, if they occured in-between our weather recording intervals... More about our weather records

Advertising

Moss Weather History for the Previous 24 Hours

Scroll right to see more
 ConditionsComfort  
Time TempWeatherWind HumidityBarometerVisibility
1:50 AM
Sun, Jun 26
61 °FPassing clouds.6 mph83%29.86 "HgN/A
1:20 AM61 °FPassing clouds.3 mph83%29.89 "HgN/A
12:50 AM61 °FPassing clouds.5 mph83%29.89 "HgN/A
12:20 AM59 °FPassing clouds.3 mph88%29.92 "HgN/A
11:50 PM
Sat, Jun 25
59 °FCool.3 mph88%29.92 "HgN/A
11:20 PM63 °FSunny.3 mph83%29.92 "Hg10 mi
10:50 PM63 °FSunny.3 mph83%29.95 "Hg10 mi
10:20 PM64 °FSunny.2 mph78%29.95 "Hg10 mi
9:50 PM64 °FSunny.1 mph73%29.92 "Hg10 mi
9:20 PM66 °FSunny.2 mph68%29.95 "Hg10 mi
8:50 PM66 °FSunny.3 mph68%29.95 "Hg10 mi
8:20 PM68 °FSunny.3 mph60%29.95 "Hg10 mi
7:50 PM68 °FSunny.2 mph60%29.95 "Hg10 mi
7:20 PM68 °FSunny.2 mph56%29.95 "Hg10 mi
6:50 PM68 °FSunny.12 mph56%29.95 "Hg10 mi
6:20 PM68 °FSunny.12 mph56%29.98 "Hg10 mi
5:50 PM68 °FSunny.13 mph69%29.98 "Hg10 mi
5:20 PM68 °FSunny.13 mph69%29.98 "Hg10 mi
4:50 PM68 °FSunny.13 mph69%29.98 "Hg10 mi
4:20 PM68 °FSunny.14 mph69%29.98 "Hg10 mi
3:50 PM68 °FSunny.14 mph64%29.98 "Hg10 mi
3:20 PM70 °FSunny.12 mph64%30.01 "Hg10 mi
2:50 PM70 °FSunny.12 mph64%30.01 "Hg10 mi
2:20 PM70 °FSunny.12 mph64%30.01 "Hg10 mi
1:50 PM70 °FPassing clouds.8 mph69%30.01 "HgN/A
1:20 PM72 °FPassing clouds.6 mph65%30.01 "HgN/A
12:50 PM70 °FPassing clouds.8 mph69%30.01 "HgN/A
12:20 PM68 °FPassing clouds.7 mph69%30.01 "HgN/A
11:50 AM66 °FSunny.9 mph78%30.01 "Hg10 mi
11:20 AM66 °FPassing clouds.9 mph78%30.01 "HgN/A
10:50 AM66 °FScattered clouds.8 mph78%30.01 "HgN/A
10:20 AM66 °FScattered clouds.6 mph78%29.98 "HgN/A
9:50 AM64 °FScattered clouds.7 mph78%29.98 "HgN/A
9:20 AM64 °FPartly sunny.8 mph83%29.98 "HgN/A
8:50 AM63 °FPartly sunny.5 mph88%29.98 "HgN/A
8:20 AM63 °FPartly sunny.5 mph83%29.98 "HgN/A
7:50 AM63 °FPartly sunny.5 mph88%29.98 "HgN/A
7:20 AM61 °FPartly sunny.5 mph94%29.98 "HgN/A
6:50 AM61 °FPartly sunny.5 mph94%29.98 "HgN/A
6:20 AM61 °FPartly sunny.6 mph94%29.98 "HgN/A
Weather by CustomWeather, © 2016

See weather overviewHow to use our weather pages